When you browse on this site, cookies collect data to enhance your experience and personalize the content and advertising you see.
Visit our Privacy Policy to learn more. By continuing to use the site, you agree to this use of cookies and data.
  • In France
  • List of Countries
  • For 7 days
  • Water Temperature
  • Weather Map
  • Weather Widgets
  • user-avatar
    Login

    Hourly Weather São Paulo

    Today, 26 August, Monday

    Time Temperature Precipitation Wind Pressure Humidity
    00:00 +14°C° 0 mm 2 mps 704 mmHg 86%
    01:00 +14°C° 0 mm 2 mps 704 mmHg 87%
    02:00 +14°C° 0 mm 2 mps 704 mmHg 87%
    03:00 +14°C° 0 mm 2 mps 704 mmHg 88%
    04:00 +13°C° 0 mm 2 mps 704 mmHg 88%
    05:00 +12°C° 0 mm 3 mps 704 mmHg 88%
    06:00 +12°C° 0 mm 3 mps 704 mmHg 87%
    07:00 +13°C° 0 mm 3 mps 704 mmHg 81%
    08:00 +16°C° 0 mm 3 mps 704 mmHg 74%
    09:00 +17°C° 0 mm 3 mps 705 mmHg 67%
    10:00 +19°C° 0 mm 3 mps 705 mmHg 58%
    11:00 +21°C° 0 mm 2 mps 705 mmHg 50%
    12:00 +25°C° 0 mm 2 mps 705 mmHg 42%
    13:00 +25°C° 0 mm 2 mps 705 mmHg 40%
    14:00 +26°C° 0 mm 2 mps 704 mmHg 39%
    15:00 +26°C° 0 mm 2 mps 704 mmHg 38%
    16:00 +24°C° 0 mm 2 mps 704 mmHg 49%
    17:00 +22°C° 0 mm 3 mps 703 mmHg 60%
    18:00 +20°C° 0 mm 3 mps 703 mmHg 70%
    19:00 +19°C° 0 mm 2 mps 703 mmHg 74%
    20:00 +18°C° 0 mm 2 mps 703 mmHg 78%
    21:00 +17°C° 0 mm 2 mps 704 mmHg 82%
    22:00 +17°C° 0 mm 2 mps 704 mmHg 84%
    23:00 +17°C° 0 mm 2 mps 704 mmHg 85%

    Tomorrow, 27 August, Tuesday

    Time Temperature Precipitation Wind Pressure Humidity
    00:00 +16°C° 0 mm 2 mps 704 mmHg 86%
    01:00 +16°C° 0 mm 2 mps 704 mmHg 87%
    02:00 +16°C° 0 mm 2 mps 703 mmHg 88%
    03:00 +15°C° 0 mm 2 mps 703 mmHg 89%
    04:00 +15°C° 0 mm 1 mps 703 mmHg 89%
    05:00 +15°C° 0 mm 1 mps 703 mmHg 89%
    06:00 +15°C° 0 mm 1 mps 703 mmHg 90%
    07:00 +16°C° 0 mm 1 mps 704 mmHg 84%
    08:00 +17°C° 0 mm 2 mps 704 mmHg 78%
    09:00 +18°C° 0 mm 2 mps 705 mmHg 73%
    10:00 +20°C° 0 mm 2 mps 705 mmHg 64%
    11:00 +23°C° 0 mm 2 mps 705 mmHg 55%
    12:00 +25°C° 0 mm 2 mps 705 mmHg 47%
    13:00 +26°C° 0 mm 2 mps 705 mmHg 47%
    14:00 +26°C° 0 mm 3 mps 704 mmHg 48%
    15:00 +26°C° 0 mm 4 mps 704 mmHg 49%
    16:00 +24°C° 0 mm 3 mps 704 mmHg 58%
    17:00 +21°C° 0 mm 3 mps 703 mmHg 68%
    18:00 +19°C° 0 mm 3 mps 703 mmHg 77%
    19:00 +18°C° 0 mm 3 mps 703 mmHg 80%
    20:00 +17°C° 0 mm 3 mps 704 mmHg 82%
    21:00 +17°C° 0 mm 2 mps 704 mmHg 85%
    22:00 +16°C° 0 mm 2 mps 704 mmHg 85%
    23:00 +16°C° 0 mm 2 mps 704 mmHg 86%

    Day after tomorrow, 28 August, Wednesday

    Time Temperature Precipitation Wind Pressure Humidity
    00:00 +16°C° 0 mm 2 mps 704 mmHg 86%
    01:00 +16°C° 0 mm 2 mps 703 mmHg 86%
    02:00 +16°C° 0 mm 2 mps 703 mmHg 85%
    03:00 +16°C° 0 mm 2 mps 702 mmHg 85%
    04:00 +15°C° 0 mm 2 mps 702 mmHg 86%
    05:00 +15°C° 0 mm 2 mps 703 mmHg 87%
    06:00 +15°C° 0 mm 2 mps 703 mmHg 87%
    07:00 +16°C° 0 mm 2 mps 703 mmHg 81%
    08:00 +17°C° 0 mm 2 mps 704 mmHg 74%
    09:00 +18°C° 0 mm 2 mps 704 mmHg 68%
    10:00 +20°C° 0 mm 2 mps 704 mmHg 58%
    11:00 +23°C° 0 mm 2 mps 704 mmHg 48%
    12:00 +25°C° 0 mm 2 mps 704 mmHg 39%
    13:00 +26°C° 0 mm 3 mps 704 mmHg 37%
    14:00 +26°C° 0 mm 3 mps 703 mmHg 36%
    15:00 +27°C° 0 mm 3 mps 703 mmHg 35%
    16:00 +25°C° 0 mm 3 mps 702 mmHg 46%
    17:00 +22°C° 0 mm 3 mps 702 mmHg 58%
    18:00 +20°C° 0 mm 3 mps 702 mmHg 69%
    19:00 +19°C° 0 mm 3 mps 702 mmHg 74%
    20:00 +18°C° 0 mm 2 mps 702 mmHg 78%
    21:00 +17°C° 0 mm 2 mps 702 mmHg 83%
    22:00 +17°C° 0 mm 2 mps 702 mmHg 83%
    23:00 +17°C° 0 mm 2 mps 702 mmHg 83%

    29 August, Thursday

    Time Temperature Precipitation Wind Pressure Humidity
    00:00 +16°C° 0 mm 1 mps 702 mmHg 83%
    01:00 +16°C° 0 mm 1 mps 701 mmHg 84%
    02:00 +15°C° 0 mm 1 mps 701 mmHg 85%
    03:00 +15°C° 0 mm 1 mps 701 mmHg 86%
    04:00 +15°C° 0 mm 1 mps 701 mmHg 85%
    05:00 +15°C° 0 mm 1 mps 701 mmHg 85%
    06:00 +14°C° 0 mm 1 mps 701 mmHg 84%
    07:00 +16°C° 0 mm 1 mps 701 mmHg 73%
    08:00 +19°C° 0 mm 1 mps 702 mmHg 62%
    09:00 +21°C° 0 mm 1 mps 702 mmHg 51%
    10:00 +23°C° 0 mm 1 mps 702 mmHg 43%
    11:00 +25°C° 0 mm 1 mps 702 mmHg 35%
    12:00 +28°C° 0 mm 1 mps 702 mmHg 26%
    13:00 +28°C° 0 mm 1 mps 701 mmHg 25%
    14:00 +29°C° 0 mm 1 mps 701 mmHg 23%
    15:00 +29°C° 0 mm 2 mps 700 mmHg 22%
    16:00 +28°C° 0 mm 2 mps 700 mmHg 29%
    17:00 +26°C° 0 mm 2 mps 700 mmHg 36%
    18:00 +24°C° 0 mm 2 mps 700 mmHg 43%
    19:00 +23°C° 0 mm 1 mps 700 mmHg 46%
    20:00 +23°C° 0 mm 1 mps 701 mmHg 49%
    21:00 +22°C° 0 mm 1 mps 701 mmHg 52%
    22:00 +21°C° 0 mm 1 mps 701 mmHg 51%
    23:00 +21°C° 0 mm 1 mps 700 mmHg 51%

    30 August, Friday

    Time Temperature Precipitation Wind Pressure Humidity
    00:00 +20°C° 0 mm 1 mps 700 mmHg 50%
    01:00 +20°C° 0 mm 1 mps 700 mmHg 51%
    02:00 +19°C° 0 mm 1 mps 700 mmHg 51%
    03:00 +19°C° 0 mm 1 mps 699 mmHg 51%
    04:00 +18°C° 0 mm 1 mps 699 mmHg 52%
    05:00 +18°C° 0 mm 1 mps 699 mmHg 54%
    06:00 +18°C° 0 mm 1 mps 699 mmHg 55%
    07:00 +19°C° 0 mm 2 mps 700 mmHg 49%
    08:00 +20°C° 0 mm 2 mps 700 mmHg 44%
    09:00 +23°C° 0 mm 2 mps 701 mmHg 39%
    10:00 +26°C° 0 mm 2 mps 701 mmHg 32%
    11:00 +28°C° 0 mm 1 mps 701 mmHg 26%
    12:00 +30°C° 0 mm 1 mps 701 mmHg 19%
    13:00 +30°C° 0 mm 1 mps 700 mmHg 19%
    14:00 +31°C° 0 mm 1 mps 700 mmHg 19%
    15:00 +31°C° 0 mm 2 mps 699 mmHg 18%
    16:00 +29°C° 0 mm 1 mps 699 mmHg 24%
    17:00 +28°C° 0 mm 1 mps 699 mmHg 30%
    18:00 +26°C° 0 mm 1 mps 699 mmHg 35%
    19:00 +25°C° 0 mm 1 mps 699 mmHg 37%
    20:00 +24°C° 0 mm 1 mps 699 mmHg 39%
    21:00 +23°C° 0 mm 1 mps 699 mmHg 40%
    22:00 +23°C° 0 mm 1 mps 699 mmHg 42%
    23:00 +22°C° 0 mm 1 mps 698 mmHg 44%

    31 August, Saturday

    Time Temperature Precipitation Wind Pressure Humidity
    00:00 +21°C° 0 mm 2 mps 698 mmHg 46%
    01:00 +21°C° 0 mm 1 mps 698 mmHg 47%
    02:00 +21°C° 0 mm 1 mps 697 mmHg 49%
    03:00 +20°C° 0 mm 1 mps 697 mmHg 50%
    04:00 +20°C° 0 mm 1 mps 697 mmHg 51%
    05:00 +20°C° 0 mm 1 mps 697 mmHg 52%
    06:00 +20°C° 0 mm 1 mps 697 mmHg 53%
    07:00 +22°C° 0 mm 1 mps 698 mmHg 48%
    08:00 +24°C° 0 mm 2 mps 699 mmHg 43%
    09:00 +26°C° 0 mm 2 mps 699 mmHg 37%
    10:00 +28°C° 0 mm 2 mps 699 mmHg 33%
    11:00 +30°C° 0 mm 3 mps 699 mmHg 29%
    12:00 +33°C° 0 mm 4 mps 699 mmHg 25%
    13:00 +33°C° 0 mm 4 mps 699 mmHg 23%
    14:00 +33°C° 0 mm 4 mps 698 mmHg 21%
    15:00 +34°C° 0 mm 4 mps 697 mmHg 19%
    16:00 +33°C° 0 mm 3 mps 697 mmHg 21%
    17:00 +30°C° 0 mm 2 mps 697 mmHg 24%
    18:00 +29°C° 0 mm 2 mps 697 mmHg 27%
    19:00 +28°C° 0 mm 2 mps 697 mmHg 28%
    20:00 +27°C° 0 mm 2 mps 697 mmHg 30%
    21:00 +26°C° 0 mm 1 mps 697 mmHg 32%
    22:00 +25°C° 0 mm 2 mps 697 mmHg 33%
    23:00 +25°C° 0 mm 2 mps 697 mmHg 34%
    Show more